STARLINK-2114 (47393 NORAD) Tracking and Keplerian Element Data

This shows tracking and keplerian element data for the satellite.

Feedback or suggestion? Click here.




ElementValue
Catalog47393
NameSTARLINK-2114
Epoch Orbit182
Epoch Day99.91667824
Epoch Year2021
RAAN181.7016
Inclination53.0547
Eccentricity0.0003701
Argument of Perigee15.1183
Mean Anonmoly57.6394
Mean Motion15.6265206
Decay Rate0.00016645
L11 47393U 21005AW 21099.91667824 .00016645 00000-0 18796-3 0 9994
L22 47393 53.0547 181.7016 0003701 15.1183 57.6394 15.62652060 1824

Live tracking and technical data element details for STARLINK-2114 (NORAD 47393). STARLINK-2114 can be tracked NOW for your location showing map with azimuth and elevation plus other details from your city location.

Track the satellite on the map from your city or location and see movement details for azimuth, elevation, latitude, longitude, range, height, and movement on the map or in text.







IsCatalogInMostPopularTable: catalog: 47393, numindb: 16
Update: records affected: 1



GetName: 47393 STARLINK-2114

Hit Count: updated at: Sat, 10 Apr 2021 18:42:19 GMT